Regional Weather Roundup
Issued by NWS State College, PA

Home | Current Version | Previous Version | Text Only | Print | Product List | Glossary Off
Versions: 1 2 3 4 5 6 7 8 9 10 11 12 13 14 15 16 17 18 19 20 21 22 23 24 25 26 27 28 29 30 31 32 33 34 35 36 37 38 39 40 41 42 43 44 45 46 47 48 49 50

147
ASUS41 KCTP 221603
RWRCTP

REGIONAL WEATHER ROUNDUP
NATIONAL WEATHER SERVICE STATE COLLEGE PA
1100 AM EST MON JAN 22 2018

Note: "fair" indicates few or no clouds below 12,000 feet with no
significant weather and/or obstructions to visibility.

* = STATION THAT DOES NOT REPORT PRECIPITATION /E.G. RAIN...SNOW...ETC/
    THUNDER OR FOG.

PAZ002>004-007>009-013>016-020>023-029>032-221700-
WESTERN PENNSYLVANIA

CITY           SKY/WX    TMP DP  RH WIND       PRES   REMARKS
ERIE           CLOUDY   N/A N/A N/A S15G22    29.93F
MEADVILLE      LGT RAIN  48  46  93 VRB3      29.97F
FRANKLIN*      CLOUDY    47  46  97 S12       30.00S
NEW CASTLE     CLOUDY    49  48  97 SE7       29.99F
BEAVER COUNTY  CLOUDY    46  48 100 SE5       29.99F
BUTLER*        CLOUDY    51  48  89 S7        30.00F
PITTSBURGH INT CLOUDY    54  49  83 SE6       29.99F
PITTSBURGH     PTSUNNY   54  47  77 S9        29.99F
INDIANA*       PTSUNNY   55  52  88 S8        30.06F
LATROBE        PTSUNNY   57  50  77 S7        30.03F
WASHINGTON CO* NOT AVBL
$$

PAZ004>006-010>012-017>019-024>028-033>037-041-042-045-046-049>053-221700-
CENTRAL PENNSYLVANIA

CITY           SKY/WX    TMP DP  RH WIND       PRES   REMARKS
BRADFORD       LGT RAIN  46  46 100 S6        30.01F VSB 1/4
DUBOIS           N/A    N/A N/A N/A MISG      30.02F
CLEARFIELD     FOG       42  42 100 NE3       30.06F VSB 1/4
JOHNSTOWN      CLOUDY    53  49  86 S6        30.05F
ALTOONA        CLOUDY    47  45  93 CALM      30.08S FOG
STATE COLLEGE  CLOUDY    39  39 100 CALM      30.09F FOG
WILLIAMSPORT   LGT RAIN  37  37 100 CALM      30.12F FOG
SELINSGROVE    CLOUDY    38  36  92 CALM      30.13F FOG
FT INDIANTOWN  CLOUDY    46  43  89 NE3       30.14F
CAPITAL CITY   LGT RAIN  47  40  76 E7        30.13F
HARRISBURG     PTSUNNY   45  39  79 CALM      30.13F HAZE
YORK           CLOUDY    47  41  80 CALM      30.12F HAZE
$$

PAZ038>040-043-044-047-048-054-055-060>062-067>071-221700-
EASTERN PENNSYLVANIA

CITY           SKY/WX    TMP DP  RH WIND       PRES   REMARKS
SCRANTON       PTSUNNY   43  41  93 CALM      30.11F FOG
MOUNT POCONO   FAIR      47  46  97 E6        30.12F
ALLENTOWN      CLOUDY    47  39  74 E3        30.17R
QUAKERTOWN*    NOT AVBL
READING        PTSUNNY   47  41  80 CALM      30.15F
LANCASTER      CLOUDY    48  42  80 E5        30.14F
COATESVILLE    FAIR      50  41  71 CALM      30.17S
POTTSTOWN      FAIR      48  39  71 VRB3      30.18R HAZE
BLUE BELL      FAIR      50  39  66 CALM      30.19R
DOYLESTOWN     CLOUDY    47  39  74 S5        30.17R
WILLOW GROVE   NOT AVBL
NORTH PHILA    CLOUDY    52  39  61 CALM      30.20R
PHILADELPHIA   CLOUDY    51  39  63 VRB6      30.19R
$$




USA.gov is the U.S. government's official web portal to all federal, state and local government web resources and services.